When you browse on this site, cookies collect data to enhance your experience and personalize the content and advertising you see.
Visit our Privacy Policy to learn more. By continuing to use the site, you agree to this use of cookies and data.
  • In United Kingdom
  • List of Countries
  • For 7 days
  • Water Temperature
  • Satellite Maps
  • Weather Map
  • Weather Widgets
  • user-avatar
    Login

    Hourly Weather Ohorodnje

    Today, 25 June, Tuesday

    Time Temperature Precipitation Wind Pressure Humidity
    00:00 +22°C° 0.1 mm 5 mps 757 mmHg 79%
    01:00 +22°C° 0.1 mm 5 mps 757 mmHg 80%
    02:00 +21°C° 0.1 mm 5 mps 757 mmHg 82%
    03:00 +22°C° 0 mm 5 mps 757 mmHg 82%
    04:00 +22°C° 0 mm 5 mps 757 mmHg 82%
    05:00 +22°C° 0 mm 4 mps 757 mmHg 82%
    06:00 +25°C° 0 mm 4 mps 757 mmHg 75%
    07:00 +27°C° 0 mm 5 mps 758 mmHg 68%
    08:00 +29°C° 0 mm 5 mps 758 mmHg 61%
    09:00 +29°C° 0.1 mm 5 mps 758 mmHg 59%
    10:00 +30°C° 0.1 mm 5 mps 758 mmHg 57%
    11:00 +32°C° 0.1 mm 5 mps 758 mmHg 56%
    12:00 +30°C° 1.9 mm 6 mps 758 mmHg 60%
    13:00 +29°C° 1.9 mm 6 mps 759 mmHg 64%
    14:00 +29°C° 1.9 mm 6 mps 759 mmHg 68%
    15:00 +28°C° 0.8 mm 7 mps 759 mmHg 70%
    16:00 +28°C° 0.8 mm 7 mps 759 mmHg 73%
    17:00 +27°C° 0.8 mm 7 mps 759 mmHg 75%
    18:00 +26°C° 0.3 mm 7 mps 759 mmHg 77%
    19:00 +24°C° 0.3 mm 7 mps 760 mmHg 79%
    20:00 +23°C° 0.3 mm 8 mps 760 mmHg 81%
    21:00 +23°C° 0.1 mm 8 mps 760 mmHg 79%
    22:00 +22°C° 0.1 mm 8 mps 760 mmHg 78%
    23:00 +22°C° 0.1 mm 7 mps 760 mmHg 77%

    Tomorrow, 26 June, Wednesday

    Time Temperature Precipitation Wind Pressure Humidity
    00:00 +21°C° 0 mm 8 mps 761 mmHg 74%
    01:00 +21°C° 0 mm 8 mps 761 mmHg 71%
    02:00 +20°C° 0 mm 8 mps 761 mmHg 68%
    03:00 +20°C° 0 mm 8 mps 761 mmHg 68%
    04:00 +20°C° 0 mm 8 mps 761 mmHg 69%
    05:00 +18°C° 0 mm 8 mps 761 mmHg 70%
    06:00 +21°C° 0 mm 8 mps 762 mmHg 66%
    07:00 +22°C° 0 mm 8 mps 762 mmHg 63%
    08:00 +24°C° 0 mm 8 mps 762 mmHg 60%
    09:00 +26°C° 0 mm 8 mps 762 mmHg 57%
    10:00 +27°C° 0 mm 7 mps 762 mmHg 53%
    11:00 +28°C° 0 mm 7 mps 761 mmHg 50%
    12:00 +28°C° 0 mm 7 mps 761 mmHg 48%
    13:00 +29°C° 0 mm 6 mps 761 mmHg 47%
    14:00 +29°C° 0 mm 6 mps 761 mmHg 45%
    15:00 +29°C° 0 mm 6 mps 761 mmHg 46%
    16:00 +28°C° 0 mm 6 mps 760 mmHg 47%
    17:00 +28°C° 0 mm 6 mps 760 mmHg 48%
    18:00 +26°C° 0 mm 6 mps 760 mmHg 51%
    19:00 +23°C° 0 mm 6 mps 760 mmHg 54%
    20:00 +22°C° 0 mm 6 mps 760 mmHg 57%
    21:00 +21°C° 0 mm 6 mps 760 mmHg 57%
    22:00 +20°C° 0 mm 6 mps 760 mmHg 57%
    23:00 +20°C° 0 mm 6 mps 760 mmHg 57%

    Day after tomorrow, 27 June, Thursday

    Time Temperature Precipitation Wind Pressure Humidity
    00:00 +19°C° 0 mm 6 mps 760 mmHg 61%
    01:00 +19°C° 0 mm 6 mps 760 mmHg 65%
    02:00 +17°C° 0 mm 6 mps 760 mmHg 68%
    03:00 +17°C° 0 mm 6 mps 759 mmHg 70%
    04:00 +17°C° 0 mm 5 mps 759 mmHg 72%
    05:00 +17°C° 0 mm 5 mps 759 mmHg 73%
    06:00 +20°C° 0 mm 5 mps 758 mmHg 67%
    07:00 +22°C° 0 mm 5 mps 758 mmHg 60%
    08:00 +25°C° 0 mm 5 mps 758 mmHg 53%
    09:00 +26°C° 0 mm 4 mps 757 mmHg 48%
    10:00 +27°C° 0 mm 4 mps 757 mmHg 43%
    11:00 +28°C° 0 mm 3 mps 756 mmHg 38%
    12:00 +29°C° 0 mm 2 mps 756 mmHg 37%
    13:00 +29°C° 0 mm 2 mps 755 mmHg 36%
    14:00 +30°C° 0 mm 1 mps 755 mmHg 35%
    15:00 +29°C° 0 mm 1 mps 754 mmHg 36%
    16:00 +29°C° 0 mm 1 mps 754 mmHg 38%
    17:00 +29°C° 0 mm 1 mps 753 mmHg 39%
    18:00 +27°C° 0 mm 2 mps 753 mmHg 47%
    19:00 +25°C° 0 mm 3 mps 753 mmHg 55%
    20:00 +22°C° 0 mm 3 mps 753 mmHg 63%
    21:00 +21°C° 0 mm 3 mps 752 mmHg 64%
    22:00 +21°C° 0 mm 4 mps 752 mmHg 66%
    23:00 +20°C° 0 mm 4 mps 751 mmHg 68%

    28 June, Friday

    Time Temperature Precipitation Wind Pressure Humidity
    00:00 +20°C° 0 mm 4 mps 751 mmHg 69%
    01:00 +20°C° 0 mm 4 mps 750 mmHg 70%
    02:00 +20°C° 0 mm 5 mps 750 mmHg 71%
    03:00 +20°C° 0 mm 5 mps 750 mmHg 71%
    04:00 +20°C° 0 mm 5 mps 749 mmHg 71%
    05:00 +20°C° 0 mm 5 mps 749 mmHg 71%
    06:00 +21°C° 0.1 mm 5 mps 749 mmHg 75%
    07:00 +21°C° 0.1 mm 5 mps 749 mmHg 78%
    08:00 +22°C° 0.1 mm 5 mps 749 mmHg 81%
    09:00 +23°C° 0 mm 5 mps 749 mmHg 74%
    10:00 +26°C° 0 mm 5 mps 749 mmHg 66%
    11:00 +27°C° 0 mm 5 mps 749 mmHg 58%
    12:00 +27°C° 0 mm 5 mps 749 mmHg 54%
    13:00 +28°C° 0 mm 5 mps 749 mmHg 50%
    14:00 +28°C° 0 mm 5 mps 749 mmHg 46%
    15:00 +28°C° 0 mm 6 mps 749 mmHg 47%
    16:00 +27°C° 0 mm 6 mps 749 mmHg 47%
    17:00 +26°C° 0 mm 6 mps 749 mmHg 48%
    18:00 +24°C° 0 mm 6 mps 749 mmHg 52%
    19:00 +22°C° 0 mm 6 mps 750 mmHg 57%
    20:00 +20°C° 0 mm 7 mps 750 mmHg 62%
    21:00 +19°C° 0 mm 6 mps 751 mmHg 66%
    22:00 +17°C° 0 mm 5 mps 751 mmHg 70%
    23:00 +16°C° 0 mm 5 mps 751 mmHg 74%

    29 June, Saturday

    Time Temperature Precipitation Wind Pressure Humidity
    00:00 +15°C° 0 mm 5 mps 751 mmHg 75%
    01:00 +15°C° 0 mm 5 mps 751 mmHg 76%
    02:00 +14°C° 0 mm 5 mps 751 mmHg 77%
    03:00 +14°C° 0 mm 4 mps 751 mmHg 78%
    04:00 +14°C° 0 mm 4 mps 751 mmHg 80%
    05:00 +14°C° 0 mm 4 mps 751 mmHg 81%
    06:00 +17°C° 0 mm 4 mps 752 mmHg 74%
    07:00 +19°C° 0 mm 4 mps 752 mmHg 66%
    08:00 +20°C° 0 mm 4 mps 752 mmHg 58%
    09:00 +21°C° 0.1 mm 4 mps 752 mmHg 55%
    10:00 +22°C° 0.1 mm 4 mps 751 mmHg 51%
    11:00 +25°C° 0.1 mm 4 mps 751 mmHg 47%
    12:00 +25°C° 0 mm 5 mps 751 mmHg 46%
    13:00 +25°C° 0 mm 5 mps 751 mmHg 44%
    14:00 +25°C° 0 mm 5 mps 751 mmHg 43%
    15:00 +23°C° 0 mm 6 mps 751 mmHg 47%
    16:00 +22°C° 0 mm 6 mps 751 mmHg 50%
    17:00 +21°C° 0 mm 6 mps 751 mmHg 54%
    18:00 +20°C° 0.1 mm 6 mps 751 mmHg 60%
    19:00 +19°C° 0.1 mm 5 mps 751 mmHg 66%
    20:00 +16°C° 0.1 mm 5 mps 752 mmHg 72%
    21:00 +15°C° 0 mm 5 mps 752 mmHg 74%
    22:00 +14°C° 0 mm 5 mps 752 mmHg 77%
    23:00 +13°C° 0 mm 6 mps 752 mmHg 80%

    30 June, Sunday

    Time Temperature Precipitation Wind Pressure Humidity
    00:00 +13°C° 0 mm 5 mps 752 mmHg 81%
    01:00 +13°C° 0 mm 5 mps 752 mmHg 81%
    02:00 +12°C° 0 mm 5 mps 752 mmHg 82%
    03:00 +12°C° 0 mm 5 mps 752 mmHg 81%
    04:00 +12°C° 0 mm 5 mps 753 mmHg 80%
    05:00 +11°C° 0 mm 6 mps 753 mmHg 78%
    06:00 +14°C° 0 mm 5 mps 753 mmHg 70%
    07:00 +16°C° 0 mm 5 mps 753 mmHg 62%
    08:00 +17°C° 0 mm 5 mps 754 mmHg 55%
    09:00 +19°C° 0 mm 5 mps 754 mmHg 50%
    10:00 +20°C° 0 mm 5 mps 754 mmHg 45%
    11:00 +21°C° 0 mm 5 mps 754 mmHg 40%
    12:00 +22°C° 0 mm 6 mps 754 mmHg 40%
    13:00 +22°C° 0 mm 6 mps 755 mmHg 40%
    14:00 +22°C° 0 mm 6 mps 755 mmHg 40%
    15:00 +21°C° 0 mm 6 mps 755 mmHg 41%
    16:00 +21°C° 0 mm 6 mps 755 mmHg 42%
    17:00 +20°C° 0 mm 6 mps 755 mmHg 44%
    18:00 +19°C° 0 mm 6 mps 756 mmHg 51%
    19:00 +16°C° 0 mm 5 mps 756 mmHg 58%
    20:00 +14°C° 0 mm 4 mps 756 mmHg 65%
    21:00 +14°C° 0 mm 4 mps 756 mmHg 68%
    22:00 +13°C° 0 mm 4 mps 757 mmHg 71%
    23:00 +12°C° 0 mm 4 mps 757 mmHg 73%
    Show more